Location: Montreal
(45.5000°N, 73.5833°W)
Time: 10:41:47
(UTC-04:00)

Vanguard 3 - All Passes

Search period start: 19 October 2017 00:00
Search period end: 29 October 2017 00:00
Orbit: 510 x 3263 km, 33.3° (Epoch: 18 October)

Date Brightness Start Highest point End Pass type
(mag) Time Alt. Az. Time Alt. Az. Time Alt. Az.
19 Oct - 02:50:26 10° S 02:57:08 14° SSE 03:02:40 10° ESE visible
19 Oct - 04:59:38 10° SW 05:10:10 28° SSE 05:17:04 10° ESE visible
19 Oct - 07:13:38 10° WSW 07:22:20 33° S 07:27:45 10° ESE daylight
19 Oct - 09:28:37 10° WSW 09:33:16 19° SSW 09:36:44 10° SSE daylight
20 Oct - 03:44:48 10° SSW 03:55:44 24° SSE 04:03:26 10° ESE visible
20 Oct - 05:57:48 10° SW 06:08:33 34° S 06:15:08 10° ESE visible
20 Oct - 08:12:48 10° WSW 08:20:12 29° SSW 08:24:59 10° SE daylight
21 Oct - 02:31:07 10° S 02:41:02 19° SSE 02:48:45 10° ESE visible
21 Oct - 04:42:02 10° SW 04:54:19 33° SSE 05:02:08 10° ESE visible
21 Oct - 06:56:48 10° WSW 07:06:42 36° S 07:12:43 10° ESE daylight
21 Oct - 09:12:25 10° WSW 09:17:41 20° SSW 09:21:30 10° SSE daylight
22 Oct - 01:20:07 10° SSE 01:26:11 13° SE 01:31:35 10° ESE visible
22 Oct - 03:26:45 10° SSW 03:39:42 29° SSE 03:48:35 10° ESE visible
22 Oct - 05:40:36 10° WSW 05:52:46 39° S 06:00:05 10° ESE visible
22 Oct - 07:56:14 10° WSW 08:04:34 31° SSW 08:09:51 10° SE daylight
23 Oct - 02:12:29 10° SSW 02:24:48 23° SSE 02:34:09 10° ESE visible
23 Oct - 04:24:30 10° SW 04:38:21 38° S 04:47:03 10° ESE visible
23 Oct - 06:39:53 10° WSW 06:51:00 39° S 06:57:36 10° ESE visible
23 Oct - 08:56:07 10° WSW 09:02:01 20° SSW 09:06:13 10° SSE daylight
24 Oct - 01:00:05 10° S 01:09:47 17° SE 01:18:04 10° ESE visible
24 Oct - 03:08:53 10° SW 03:23:31 33° SSE 03:33:30 10° ESE visible
24 Oct - 05:23:23 10° WSW 05:36:52 42° S 05:44:57 10° ESE visible
24 Oct - 07:39:33 10° WSW 07:48:51 32° SSW 07:54:40 10° SE daylight
25 Oct - 01:54:14 10° SSW 02:08:26 28° SSE 02:19:10 10° ESE visible
25 Oct - 04:07:01 10° SW 04:22:15 42° S 04:31:52 10° ESE visible
25 Oct - 06:22:54 10° WSW 06:35:10 41° SSW 06:42:26 10° SE visible
25 Oct - 08:39:44 10° WSW 08:46:15 21° SW 08:50:50 10° SSE daylight
26 Oct - 00:41:08 10° S 00:53:15 20° SE 01:03:31 10° ESE visible
26 Oct - 02:51:10 10° SW 03:07:13 38° SSE 03:18:15 10° E visible
26 Oct - 05:06:09 10° WSW 05:20:52 46° S 05:29:43 10° ESE visible
26 Oct - 07:22:47 10° W 07:33:02 32° SSW 07:39:24 10° SE daylight
26 Oct - 23:31:22 10° SSE 23:38:14 13° SE 23:44:42 10° ESE night (unlit)
27 Oct - 01:36:16 10° SSW 01:51:54 32° SSE 02:03:55 10° E visible
27 Oct - 03:49:37 10° WSW 04:06:02 46° S 04:16:33 10° ESE visible
27 Oct - 06:05:52 10° WSW 06:19:13 42° SSW 06:27:10 10° SE visible
27 Oct - 08:23:15 10° W 08:30:22 20° SW 08:35:24 10° S daylight
28 Oct - 00:22:47 10° S 00:36:35 24° SE 00:48:27 10° E visible
28 Oct - 02:33:38 10° SW 02:50:45 42° SSE 03:02:52 10° E visible
28 Oct - 04:48:56 10° WSW 05:04:45 48° S 05:14:25 10° ESE visible
28 Oct - 07:05:57 10° W 07:17:06 33° SSW 07:24:03 10° SSE daylight
28 Oct - 23:11:40 10° SSE 23:21:28 16° SE 23:30:46 10° ESE night (unlit)
